TimeMDT,TemperatureF,Dew PointF,Humidity,Sea Level PressureIn,VisibilityMPH,Wind Direction,Wind SpeedMPH,Gust SpeedMPH,PrecipitationIn,Events,Conditions,WindDirDegrees,DateUTC
12:51 AM,36.0,25.0,64,29.96,10.0,SE,15.0,21.9,N/A,,Clear,140,2011-10-20 06:51:00
1:51 AM,34.0,25.0,70,29.96,10.0,SE,15.0,-,N/A,,Clear,130,2011-10-20 07:51:00
2:51 AM,33.1,24.1,70,29.96,10.0,SE,12.7,-,N/A,,Clear,130,2011-10-20 08:51:00
3:51 AM,32.0,24.1,73,29.96,10.0,ESE,9.2,19.6,N/A,,Clear,120,2011-10-20 09:51:00
4:51 AM,30.9,23.0,72,29.94,10.0,SE,9.2,-,N/A,,Clear,130,2011-10-20 10:51:00
5:51 AM,30.9,23.0,72,29.95,10.0,SE,10.4,-,N/A,,Clear,130,2011-10-20 11:51:00
6:51 AM,28.9,23.0,78,29.97,10.0,SE,8.1,-,N/A,,Clear,130,2011-10-20 12:51:00
7:51 AM,28.9,23.0,78,29.98,10.0,ESE,4.6,-,N/A,,Clear,110,2011-10-20 13:51:00
8:51 AM,39.0,27.0,62,29.96,10.0,ESE,6.9,-,N/A,,Clear,120,2011-10-20 14:51:00
9:51 AM,50.0,30.9,48,29.95,10.0,West,4.6,-,N/A,,Clear,280,2011-10-20 15:51:00
10:51 AM,54.0,32.0,43,29.94,10.0,West,5.8,-,N/A,,Clear,270,2011-10-20 16:51:00
11:51 AM,57.0,33.1,40,29.93,10.0,West,11.5,-,N/A,,Clear,270,2011-10-20 17:51:00
12:51 PM,61.0,34.0,36,29.92,10.0,WNW,11.5,-,N/A,,Clear,300,2011-10-20 18:51:00
1:51 PM,64.0,34.0,33,29.91,10.0,WNW,11.5,-,N/A,,Clear,300,2011-10-20 19:51:00
2:51 PM,66.0,34.0,30,29.89,10.0,NW,11.5,-,N/A,,Clear,310,2011-10-20 20:51:00
3:51 PM,66.9,34.0,30,29.90,10.0,WNW,13.8,-,N/A,,Clear,300,2011-10-20 21:51:00
4:51 PM,64.0,36.0,35,29.91,10.0,WNW,12.7,20.7,N/A,,Clear,290,2011-10-20 22:51:00
5:51 PM,59.0,37.0,44,29.94,10.0,West,9.2,-,N/A,,Clear,280,2011-10-20 23:51:00
6:51 PM,54.0,36.0,51,29.97,10.0,West,6.9,-,N/A,,Clear,270,2011-10-21 00:51:00
7:51 PM,51.1,36.0,56,29.98,10.0,WSW,9.2,-,N/A,,Clear,250,2011-10-21 01:51:00
8:51 PM,48.9,36.0,61,29.98,10.0,West,5.8,-,N/A,,Clear,280,2011-10-21 02:51:00
11:51 PM,45.0,35.1,68,29.99,10.0,NW,3.5,-,N/A,,Clear,310,2011-10-21 05:51:00